This is the latest recevied weather packets stored in our database for station/object K1RFS. If no packets are shown the sender has not sent any weather packets the latest 10 day(s).
| Time | Temp. | Humidity | Pressure | Rain* | Wind** | Luminosity | Snow |
|---|---|---|---|---|---|---|---|
| 1788556194 | 30.56° C | 17% | 999.1 hPa | 0 mm | - | 513 W/m² | - |
| 1788555892 | 30.56° C | 16% | 999.4 hPa | 0 mm | - | 528 W/m² | - |
| 1788555588 | 30.56° C | 16% | 999.1 hPa | 0 mm | - | 528 W/m² | - |
| 1788555284 | 30.56° C | 16% | 999.2 hPa | 0 mm | - | 537 W/m² | - |
| 1788554981 | 31.11° C | 16% | 999.2 hPa | 0 mm | - | 539 W/m² | - |
| 1788554677 | 30.56° C | 16% | 999.2 hPa | 0 mm | - | 544 W/m² | - |
| 1788554373 | 31.11° C | 16% | 999.4 hPa | 0 mm | - | 548 W/m² | - |
| 1788554069 | 30.56° C | 16% | 999.4 hPa | 0 mm | - | 554 W/m² | - |
| 1788553765 | 30.56° C | 16% | 999.2 hPa | 0 mm | - | 553 W/m² | - |
| 1788553461 | 30° C | 17% | 999.4 hPa | 0 mm | - | 559 W/m² | - |
| 1788553156 | 30° C | 16% | 999.3 hPa | 0 mm | - | 555 W/m² | - |
| 1788552851 | 30° C | 17% | 999.3 hPa | 0 mm | - | 567 W/m² | - |
| 1788552547 | 29.44° C | 17% | 999.6 hPa | 0 mm | - | 565 W/m² | - |
| 1788552244 | 30° C | 16% | 999.6 hPa | 0 mm | - | 568 W/m² | - |
| 1788551940 | 30° C | 17% | 999.4 hPa | 0 mm | - | 577 W/m² | - |
| 1788551638 | 30° C | 17% | 999.3 hPa | 0 mm | - | 577 W/m² | - |
| 1788551332 | 30° C | 17% | 999.8 hPa | 0 mm | - | 575 W/m² | - |
| 1788551032 | 30° C | 18% | 999.7 hPa | 0 mm | - | 580 W/m² | - |
| 1788550727 | 29.44° C | 17% | 999.7 hPa | 0 mm | - | 578 W/m² | - |
| 1788550423 | 28.89° C | 19% | 999.7 hPa | 0 mm | - | 581 W/m² | - |
| 1788550118 | 28.89° C | 19% | 999.7 hPa | 0 mm | - | 577 W/m² | - |
| 1788549813 | 28.33° C | 18% | 999.7 hPa | 0 mm | - | 578 W/m² | - |
| 1788549510 | 28.89° C | 18% | 999.8 hPa | 0 mm | - | 577 W/m² | - |
| 1788549206 | 28.33° C | 19% | 1000 hPa | 0 mm | - | 578 W/m² | - |
| 1788548902 | 28.33° C | 18% | 999.9 hPa | 0 mm | - | 572 W/m² | - |
* Rain latest hour (hover to see other rain measurements)
** Current wind speed in m/s (hover to see current wind gust speed)